Wind_Speed
27 26 26 29 30 30 30 30 30 30 30 31 32 33 32 30 26 21 16 13 13 15 17 18 19 19 18 17 17 16 16 17 17 18 19 19 18 19 19 19 17 14 14 15 14 13 12 10 10 8 7 9 10 10 10 10 9 6 4 5 9 10 10 11 12 12 10 9 8 7 6 7 7 7 8 8 7 6 5 5 5 5 6 6 6
24 23 24 26 28 29 30 30 30 29 30 31 33 36 37 37 37 35 32 27 21 16 14 16 18 19 19 19 19 19 18 17 18 19 19 20 21 21 21 21 20 17 15 15 15 15 13 11 10 9 9 11 13 13 11 11 12 11 7 5 6 10 12 12 13 14 13 11 10 9 8 8 8 8 8 8 8 7 5 4 4 4 5 5 5
20 19 20 21 24 26 28 29 29 29 29 30 33 35 38 40 41 43 44 44 41 36 27 19 15 17 19 19 20 21 20 18 18 19 20 21 22 24 23 23 23 21 18 17 17 17 15 11 8 7 9 13 16 15 13 11 12 13 11 8 7 8 11 13 14 15 15 14 12 11 10 9 9 9 9 9 8 7 6 5 4 3 3 4 5
22 18 17 17 19 22 26 29 29 28 28 30 32 34 38 40 43 45 47 49 50 50 47 39 29 19 16 18 20 21 22 21 20 19 20 21 22 24 25 25 25 24 23 20 19 19 17 13 8 8 13 18 20 17 13 12 12 13 12 11 10 8 9 11 14 15 16 16 14 13 12 11 10 10 10 9 9 8 6 5 4 3 3 3 4
24 21 17 15 16 18 23 28 30 28 27 29 31 33 35 38 40 42 44 47 49 51 53 52 49 40 28 17 18 21 22 23 23 22 21 21 23 24 25 26 26 26 26 24 22 21 20 16 12 14 20 23 22 18 15 14 14 15 14 12 11 10 9 10 13 15 16 17 17 16 14 13 12 11 11 11 10 9 7 5 5 4 2 2 3
24 22 20 17 15 14 16 22 27 28 26 27 29 30 33 35 37 38 40 43 45 48 50 52 54 54 49 39 24 16 20 24 25 25 24 23 23 24 25 26 26 26 27 27 25 24 23 20 19 21 23 23 21 18 17 17 16 17 16 14 13 11 10 9 11 14 17 18 18 18 17 15 14 13 12 12 12 10 9 6 5 5 3 2 2
23 21 21 19 17 14 13 15 21 24 23 24 26 27 30 32 35 37 38 40 42 44 46 49 51 53 54 54 48 36 21 17 23 26 27 26 25 25 26 27 27 27 27 27 27 27 26 24 24 25 25 23 22 21 21 19 17 18 17 16 15 13 11 9 10 12 16 19 19 20 19 18 16 15 14 14 13 12 11 8 7 6 5 3 1
24 22 19 19 18 17 15 16 20 20 18 20 22 23 26 30 33 36 38 39 40 42 43 45 47 50 52 53 54 52 45 32 20 20 25 28 29 28 27 28 29 29 28 27 28 29 29 28 27 28 28 27 25 23 22 19 17 18 18 18 17 15 14 12 10 10 13 17 20 21 21 20 19 18 17 16 15 14 13 11 9 8 7 5 3
26 25 22 19 18 19 19 19 20 17 14 16 18 20 23 27 31 35 37 39 41 42 42 43 44 45 48 50 51 52 52 49 41 29 20 22 28 30 30 29 30 30 30 29 29 29 31 31 30 30 32 32 28 24 22 21 20 19 19 20 19 17 17 15 12 10 10 14 18 21 22 22 21 20 19 18 17 16 15 14 12 11 10 8 6
26 26 25 23 21 21 22 23 21 16 12 13 14 17 21 25 29 32 35 38 40 41 43 43 44 44 44 46 48 50 50 51 51 47 38 27 21 25 31 32 31 31 31 32 31 30 31 32 33 33 34 34 32 27 25 25 23 22 22 22 20 18 18 17 15 13 13 13 16 21 23 23 23 23 22 21 19 18 17 16 15 13 12 11 9
25 25 25 25 25 23 23 24 23 18 13 11 11 15 19 24 28 31 34 36 38 40 41 43 44 44 43 43 44 47 49 50 50 51 49 45 36 26 24 31 34 33 32 32 33 33 32 32 33 35 36 36 34 32 29 27 25 23 23 23 22 18 16 17 19 20 20 18 17 20 24 26 26 25 25 24 22 21 19 18 17 16 14 13 12
26 25 25 25 26 25 23 24 25 22 17 12 12 16 20 25 29 32 33 35 36 38 39 41 43 44 44 43 42 43 46 49 49 49 51 50 48 42 33 25 29 36 36 34 34 35 36 35 34 36 37 38 38 36 34 31 28 26 25 24 22 18 17 19 24 27 27 25 22 22 24 26 27 27 27 27 26 24 22 21 19 18 17 15 14
27 26 26 25 26 26 25 24 24 23 20 16 15 18 23 27 31 32 33 34 35 35 37 39 42 44 44 44 43 42 43 46 48 48 49 51 51 50 46 38 27 28 36 39 37 36 37 38 37 37 38 40 41 39 37 35 33 30 29 26 21 20 23 26 29 31 31 30 27 24 22 23 26 28 29 28 28 27 25 24 22 20 19 18 16
27 27 26 25 26 26 26 24 23 23 22 19 18 20 25 28 30 31 32 33 34 34 35 38 41 43 44 44 44 43 42 43 46 47 47 49 51 52 51 47 40 29 27 37 41 40 38 39 40 40 40 41 42 43 41 39 36 32 30 28 24 23 27 30 32 33 33 33 30 26 24 23 25 28 30 31 30 30 29 27 25 23 22 21 19
28 27 27 26 25 26 26 23 22 22 23 22 21 22 25 28 29 31 32 32 33 33 34 37 41 43 44 44 44 44 43 43 44 46 47 47 50 52 53 51 48 41 29 26 36 43 42 40 41 42 42 42 43 44 44 43 41 37 34 32 29 29 31 33 34 35 35 35 32 29 27 26 27 29 31 33 33 32 32 30 28 27 25 23 22
29 28 27 26 24 25 25 22 20 21 23 24 25 25 26 28 29 30 31 32 32 33 35 37 40 42 43 44 44 44 43 43 44 45 47 47 48 51 53 53 51 48 40 27 25 36 43 44 43 43 44 44 44 44 46 46 45 43 40 37 35 34 36 37 36 35 35 34 33 32 31 31 31 31 31 33 35 35 34 33 32 30 28 26 24
30 28 27 26 24 24 25 23 21 22 24 25 27 28 30 31 31 32 32 34 35 36 37 39 40 42 43 44 44 44 43 43 44 45 47 48 48 50 53 54 52 51 48 38 24 25 36 44 46 45 44 46 46 45 46 47 48 47 46 44 42 39 39 41 39 37 36 35 34 35 36 35 35 33 30 31 34 36 35 35 34 32 31 29 27
30 28 26 26 25 25 25 24 22 23 25 27 29 30 32 33 34 35 36 38 39 39 40 41 42 43 44 45 46 45 45 44 43 44 47 48 49 50 51 54 53 51 52 48 35 22 25 35 44 47 47 46 47 47 47 47 48 50 50 50 49 46 44 44 44 42 40 38 37 38 39 38 37 35 32 31 32 34 35 36 35 34 33 31 30
31 30 26 26 26 27 27 26 25 24 26 29 31 32 33 34 35 36 38 40 41 41 42 43 44 44 45 46 47 47 47 46 45 45 46 48 50 50 51 53 54 52 51 52 46 32 21 24 33 43 48 48 48 48 49 49 49 50 52 53 54 52 50 48 47 45 44 43 41 40 41 41 40 38 35 33 33 33 35 37 36 36 35 34 33
32 31 28 26 27 28 28 28 27 26 27 29 32 34 35 35 36 36 37 39 41 42 44 45 45 45 46 46 47 48 49 49 49 47 46 47 49 51 51 52 55 54 52 52 51 43 31 22 23 31 41 48 50 50 50 50 51 51 51 53 56 57 56 53 51 49 47 47 46 45 43 42 41 41 38 36 36 35 34 36 37 37 37 36 35
33 32 29 27 27 27 29 30 29 28 28 30 34 36 37 36 36 36 37 39 42 44 46 47 47 47 47 47 48 48 49 50 51 50 48 48 49 51 51 52 55 55 53 53 53 50 43 32 24 22 27 38 46 51 52 52 52 53 53 54 55 58 60 59 57 55 52 50 51 50 48 46 43 43 41 39 39 38 34 35 38 38 39 39 37
34 32 30 27 27 27 30 32 32 31 30 32 35 38 39 38 37 38 39 40 42 45 47 49 49 48 48 48 49 49 50 50 51 52 51 50 50 51 52 51 54 57 55 54 55 54 51 45 34 26 23 25 34 43 50 54 55 55 55 56 57 58 60 61 61 60 57 55 54 55 55 52 49 46 44 43 42 41 38 36 38 40 40 40 40
35 33 30 28 27 28 30 32 33 32 32 34 37 39 41 41 41 40 40 42 44 45 47 50 50 50 49 49 50 50 50 51 52 52 52 52 51 52 53 52 52 56 56 55 56 56 54 53 46 35 29 26 26 32 41 50 56 58 58 58 59 60 60 62 63 63 61 59 57 57 58 58 55 51 48 47 46 44 43 41 39 40 41 42 42
37 33 31 29 29 30 32 34 34 33 34 35 37 40 42 44 44 43 43 44 46 47 48 50 51 51 50 50 50 50 51 52 53 53 53 53 53 54 55 54 53 55 57 56 55 54 53 53 51 42 34 31 31 30 33 40 49 57 61 61 61 62 63 63 64 65 64 62 60 60 61 61 59 56 53 51 49 48 46 45 43 41 41 42 43
38 34 32 33 33 34 35 36 35 35 36 36 37 40 42 45 46 46 46 47 49 51 50 50 51 50 50 50 50 51 52 53 54 54 53 53 54 56 58 56 55 57 59 57 55 54 53 53 52 47 39 34 34 35 35 36 42 51 59 64 65 65 65 66 66 66 66 65 63 62 62 63 62 60 57 55 53 50 48 47 46 43 42 42 43
37 32 33 35 36 37 38 38 37 38 40 39 39 41 43 45 47 48 49 49 52 53 52 50 50 50 50 50 50 51 52 54 54 54 53 54 56 58 59 57 57 60 61 59 58 56 56 56 53 50 44 38 35 36 37 38 40 46 53 61 67 68 68 68 69 69 68 67 66 64 63 64 65 63 60 58 56 53 50 49 48 47 44 43 43
36 32 34 35 35 38 40 39 39 41 41 41 41 43 45 47 49 51 50 51 54 54 52 51 51 50 50 51 51 52 53 54 54 53 54 56 58 59 59 59 61 64 64 63 61 60 61 61 57 54 50 43 38 37 37 39 42 45 50 57 65 70 71 71 71 71 71 70 68 67 65 66 66 66 63 61 59 56 54 52 50 49 48 46 45
37 34 35 36 37 39 41 42 42 42 41 42 44 45 47 49 51 52 52 54 55 53 52 53 52 51 51 51 52 52 53 54 54 54 56 58 59 60 59 61 64 67 67 65 64 64 65 65 62 60 57 50 43 41 39 39 41 45 49 53 60 68 73 75 75 74 74 73 72 70 68 67 67 68 67 65 61 59 57 55 53 51 50 49 47
36 34 35 37 39 41 43 44 44 41 41 44 45 46 48 51 53 53 54 55 55 53 54 54 54 53 52 51 52 52 53 55 55 56 57 59 59 60 62 65 67 68 66 65 67 68 68 68 66 65 64 57 49 46 44 42 42 44 49 52 56 63 72 77 78 77 77 77 75 73 71 69 69 69 70 69 65 62 60 58 56 54 53 51 50
37 35 35 36 38 41 44 45 44 42 43 46 47 48 50 52 53 54 56 56 54 54 55 55 54 53 52 51 51 52 55 56 57 57 58 59 61 64 66 68 68 66 64 65 70 73 71 70 71 69 66 61 54 50 47 45 44 44 48 52 55 58 66 75 80 80 80 79 79 77 75 73 71 70 71 71 69 65 63 61 59 57 56 54 52
41 37 37 38 40 43 44 45 45 43 44 47 49 51 51 51 54 56 57 56 55 56 56 55 55 54 52 52 52 54 57 58 58 59 60 62 65 67 68 68 68 67 67 67 71 75 75 73 73 71 67 64 60 55 52 49 47 45 47 52 55 56 60 69 77 82 82 82 81 80 79 76 74 72 72 73 73 69 66 64 62 60 60 58 55
44 41 41 43 44 44 44 45 45 44 46 48 49 51 52 53 56 58 58 57 57 56 56 57 59 58 56 55 55 56 57 58 59 61 63 65 68 70 71 72 72 72 72 72 74 77 78 76 74 72 70 69 66 61 56 54 51 47 46 50 54 56 57 63 71 79 83 84 83 83 82 80 78 75 74 74 75 73 71 68 64 63 63 61 59
46 45 45 45 45 44 44 44 44 44 47 49 50 53 55 56 58 59 58 58 57 58 60 61 60 57 55 54 54 56 58 59 62 64 66 69 71 74 76 77 77 77 78 78 77 76 77 77 75 75 75 74 71 65 59 57 54 49 47 49 53 55 56 59 66 74 80 84 85 85 84 84 81 79 76 75 76 77 76 73 69 66 65 63 62
47 46 46 47 48 46 44 43 42 44 47 50 53 55 57 57 58 58 58 59 59 61 61 59 56 54 54 55 56 58 60 63 66 68 71 74 76 79 81 81 82 82 81 80 76 74 75 77 77 78 79 78 74 68 62 57 54 50 48 49 52 55 56 57 62 70 76 81 85 86 86 86 85 82 79 77 77 78 79 77 74 70 67 64 63
49 48 47 48 48 46 44 43 43 45 49 51 53 54 56 56 57 57 58 59 61 61 60 60 60 60 60 61 62 63 65 69 72 75 77 79 81 83 84 86 85 83 80 77 75 74 75 77 79 83 83 80 77 72 65 57 52 48 48 49 51 54 56 57 59 66 72 76 82 86 87 87 87 86 84 81 79 79 79 80 78 75 71 67 64
50 49 47 47 47 46 44 43 44 46 49 49 50 52 54 55 57 58 59 59 60 61 62 64 65 65 65 65 66 68 71 75 78 80 82 83 85 86 87 87 84 80 77 76 76 76 77 79 84 86 85 81 78 75 67 57 49 46 45 48 51 53 56 56 57 62 69 72 78 84 88 88 88 89 88 85 82 80 80 80 79 78 75 72 67
50 50 50 50 49 46 44 45 46 47 48 49 50 52 54 56 57 58 58 59 61 63 64 65 66 66 67 68 70 72 76 80 82 84 86 86 88 88 87 84 80 77 77 77 78 79 81 84 87 88 84 80 78 75 67 55 47 43 42 44 50 54 55 55 55 59 65 70 73 80 86 88 89 89 90 89 85 82 81 80 80 79 78 75 71
53 53 54 53 51 47 45 46 47 47 49 51 53 55 57 58 59 59 60 61 62 63 65 66 67 69 70 72 75 78 81 83 85 86 88 88 88 87 83 79 77 77 79 81 82 83 85 87 89 87 83 80 78 73 63 52 44 41 41 43 48 53 54 53 54 57 62 68 71 75 81 86 89 89 90 90 89 86 83 81 81 80 79 77 74
55 55 52 50 50 48 47 49 51 52 55 57 59 62 63 63 63 63 63 63 64 66 67 69 71 72 75 77 79 82 84 85 86 88 89 88 85 82 79 77 79 81 83 84 86 87 88 90 89 87 83 80 76 69 59 50 44 40 40 43 47 51 51 51 52 55 60 65 69 72 76 82 87 89 90 90 91 89 86 83 81 80 80 79 76
52 51 48 47 48 50 53 56 57 58 60 62 65 68 69 69 68 68 69 70 72 74 76 77 79 80 81 83 85 86 87 88 88 88 87 84 80 78 79 80 82 84 86 87 89 90 91 91 90 87 83 77 70 63 55 50 46 42 40 41 45 48 49 49 51 54 58 62 66 69 73 78 84 88 90 91 91 92 90 86 83 81 80 80 78
50 50 50 50 52 57 59 59 59 59 62 65 68 71 73 74 75 76 77 78 80 82 84 85 86 86 87 89 90 90 88 88 87 86 83 79 77 78 80 82 84 86 88 90 91 93 94 92 90 85 78 71 64 59 56 51 47 44 40 39 42 46 47 48 50 53 56 59 64 68 72 76 81 86 90 91 92 92 92 89 85 83 81 81 80
53 54 54 54 56 60 61 60 61 62 64 68 71 75 78 81 82 83 84 85 86 88 90 90 90 90 91 92 91 89 87 86 85 82 78 76 76 78 81 83 86 89 91 93 95 96 95 91 86 80 73 67 62 60 58 52 46 43 40 37 39 43 45 47 50 52 54 58 62 66 71 75 78 82 86 90 91 91 90 90 88 85 83 81 80
56 55 55 56 58 61 62 63 64 66 70 74 77 81 85 86 87 88 89 90 92 93 94 94 94 94 93 91 89 87 85 84 81 78 75 76 79 82 84 86 89 91 93 95 97 96 91 86 80 75 70 66 64 61 58 52 46 42 39 36 37 40 43 46 49 51 54 56 60 64 70 74 75 77 81 85 88 89 87 87 88 87 85 82 81
57 56 55 57 61 64 66 68 70 74 79 81 84 87 88 88 90 92 93 94 95 96 96 96 95 94 91 87 84 83 82 80 78 76 77 80 83 85 88 90 92 94 96 97 95 91 85 80 76 72 70 68 64 61 57 51 45 41 37 35 35 38 40 44 48 52 54 55 58 62 68 72 72 72 75 79 83 84 84 85 86 87 86 84 82
55 55 57 62 67 70 72 75 78 82 84 86 88 90 90 91 93 95 95 96 96 96 96 94 91 86 81 79 78 78 77 77 77 78 80 83 86 88 91 93 95 98 98 95 90 85 81 77 74 72 70 68 64 59 55 51 44 39 36 34 34 35 38 42 47 52 54 54 55 60 65 69 67 65 70 74 77 79 82 84 85 86 86 86 84
60 60 64 69 72 76 78 81 84 86 88 89 91 92 93 95 96 96 96 96 94 93 90 85 79 74 72 73 74 75 76 78 80 82 84 86 90 93 95 97 99 99 95 90 85 82 79 75 73 72 70 67 64 59 53 49 44 39 35 34 33 32 36 42 47 53 55 52 53 57 60 62 63 62 66 72 73 76 81 85 87 86 86 87 86
64 67 72 74 78 82 84 85 88 89 91 92 92 93 94 95 96 96 95 91 87 84 80 75 71 71 72 74 76 78 80 83 85 87 89 92 94 97 99 100 100 96 90 86 83 80 78 76 74 72 69 65 62 58 53 48 44 39 35 34 33 32 35 43 47 52 54 51 50 50 50 55 62 62 64 70 72 75 81 86 88 88 86 87 87
65 70 73 76 79 82 84 86 88 90 91 92 93 94 93 93 93 90 86 82 78 77 76 74 74 75 76 77 80 82 85 88 91 92 94 96 98 100 101 100 96 91 86 84 82 80 78 76 74 71 68 64 61 58 53 48 44 40 36 34 33 33 36 42 47 51 53 49 44 42 45 57 65 64 64 68 71 74 80 85 87 87 86 85 85
66 69 71 74 78 80 81 84 86 88 90 92 92 91 88 86 83 80 77 77 77 77 77 76 75 76 78 81 84 86 90 93 95 96 97 100 101 101 99 94 89 86 84 83 83 82 79 76 73 70 66 62 60 57 53 48 43 40 37 34 33 34 37 42 45 49 51 46 40 40 48 61 68 66 65 67 70 74 79 83 84 85 85 84 84
64 66 69 72 75 76 78 80 83 85 87 88 87 85 81 78 76 75 75 76 77 77 76 75 76 78 81 84 87 91 94 96 97 99 101 102 100 95 90 86 84 84 85 85 84 83 80 76 71 67 63 60 59 57 53 47 42 39 36 35 34 34 37 40 43 46 49 45 42 44 52 63 67 66 65 66 69 74 78 80 81 82 82 83 83
64 66 68 70 72 74 76 79 81 81 80 79 77 76 74 73 72 71 72 73 75 76 77 79 81 83 86 89 93 96 97 98 100 101 100 96 91 86 83 83 84 85 86 86 85 83 79 75 69 64 61 58 57 55 51 45 41 38 35 35 35 35 36 39 41 44 47 46 44 47 55 63 66 66 65 66 69 73 75 77 78 79 80 81 81
Wind_Direction
38 43 49 53 54 55 54 53 52 51 50 50 49 47 44 40 33 23 6 340 311 294 286 284 284 284 280 277 278 275 266 259 258 257 255 254 256 257 258 262 264 266 263 256 252 245 237 237 237 250 278 300 312 319 320 315 307 301 293 257 238 232 227 219 214 213 216 217 215 215 212 207 195 180 172 163 155 146 137 123 96 71 63 63 62
44 47 51 55 53 51 51 50 50 48 47 47 47 48 47 46 44 41 36 29 17 354 321 296 283 278 274 273 274 277 274 265 260 259 255 253 252 253 254 257 260 262 260 254 253 254 247 239 242 258 278 287 293 298 303 307 305 298 288 276 250 237 232 226 220 216 217 220 220 220 217 214 208 195 186 179 171 163 157 145 121 80 65 63 64
48 52 49 50 48 47 46 44 44 41 41 43 45 48 50 50 49 47 45 43 39 34 22 359 321 291 278 271 269 271 275 273 266 260 256 254 252 252 251 251 255 258 257 251 248 252 251 244 243 254 264 265 267 274 283 293 302 303 296 294 289 261 243 234 228 221 218 219 222 223 221 219 216 208 197 190 186 181 173 163 152 111 73 64 62
47 51 46 45 42 43 42 39 37 35 37 42 47 51 53 52 50 48 46 45 44 42 39 34 22 355 312 285 272 267 269 272 271 267 260 256 254 254 253 251 251 253 255 251 245 246 248 246 241 239 239 240 245 251 260 274 287 294 293 291 293 285 264 247 236 230 224 220 221 224 224 223 220 216 208 199 196 195 191 182 177 155 96 72 62
39 39 36 39 36 37 39 38 36 35 39 46 49 51 52 51 49 46 44 42 41 40 40 40 38 32 18 342 297 275 269 269 271 271 267 261 258 256 255 253 251 251 252 252 248 246 245 242 234 233 235 237 243 247 249 256 266 275 277 276 280 279 273 262 247 238 233 227 223 223 225 225 223 221 217 209 202 201 203 197 194 186 140 89 65
29 31 29 27 21 22 29 31 33 35 40 45 45 45 46 45 43 41 39 37 36 35 36 36 37 38 35 29 10 323 283 272 270 271 271 267 263 259 258 257 254 252 251 250 249 247 246 243 235 233 236 239 244 247 243 243 249 259 265 269 277 279 274 273 260 246 239 235 229 225 224 225 226 225 222 218 212 207 208 209 205 201 185 137 80
19 22 25 24 16 7 1 2 10 21 32 35 35 38 38 37 34 32 31 31 31 30 30 30 32 33 35 36 33 24 359 307 279 272 271 271 269 264 260 259 258 255 253 250 247 246 246 244 241 238 237 239 240 240 239 236 239 247 253 259 268 275 275 274 268 255 245 240 235 230 227 226 227 227 226 223 221 216 213 213 212 208 204 194 176
15 14 15 17 15 7 354 340 343 359 18 22 24 29 31 29 26 24 23 22 23 24 24 25 25 27 29 32 34 34 30 19 347 300 279 273 272 270 266 262 260 258 256 253 248 245 245 244 243 240 238 238 237 239 239 234 236 242 244 247 254 260 266 266 262 259 253 248 242 236 231 229 228 228 229 227 225 224 221 218 216 214 212 209 212
14 13 11 8 6 6 2 353 348 357 11 15 19 24 25 24 21 19 18 16 15 16 17 18 19 20 22 25 28 31 31 30 26 12 335 295 277 271 270 267 263 259 257 256 252 247 245 244 243 240 239 238 236 237 238 234 232 236 237 240 244 247 256 264 264 263 264 259 252 245 238 233 230 230 230 230 228 227 227 225 221 218 215 214 218
12 12 11 6 2 360 2 2 1 2 6 10 18 22 21 19 15 13 12 11 10 10 11 12 13 14 16 18 21 23 25 26 29 28 21 3 323 286 272 267 265 261 257 255 254 251 247 245 244 241 240 240 237 234 236 236 234 232 232 234 236 236 248 266 276 274 268 263 256 249 244 238 234 231 230 231 230 228 228 229 227 223 219 218 219
7 8 8 7 3 358 356 359 360 359 357 360 10 14 12 10 6 4 3 4 5 6 7 7 8 9 10 12 13 16 18 20 22 24 26 23 14 349 304 275 265 261 257 254 252 252 251 248 246 243 240 240 239 236 235 236 234 233 233 232 230 228 237 257 266 264 259 256 250 242 240 238 235 232 230 230 231 231 229 229 229 228 225 223 221
2 3 3 4 4 0 355 353 353 352 347 342 351 360 1 358 356 354 353 355 357 0 3 4 4 4 4 5 7 9 12 14 15 17 19 21 21 16 1 323 281 264 257 254 251 250 250 249 248 246 242 241 241 239 237 234 232 234 237 234 227 224 227 238 246 248 247 248 245 239 239 240 236 233 232 230 230 232 232 230 229 229 229 227 225
357 358 359 360 1 1 358 354 352 352 346 333 333 344 348 348 347 347 347 348 350 354 359 1 1 1 360 0 1 3 6 9 11 11 12 14 16 17 14 4 335 288 263 254 250 248 247 247 247 247 245 243 242 241 238 234 233 235 239 235 226 228 233 232 236 240 241 242 242 243 247 250 245 238 235 232 230 230 232 232 230 228 230 230 230
353 353 354 355 356 358 357 356 355 356 353 343 332 333 338 341 343 345 346 346 347 349 353 357 358 357 356 356 356 358 0 4 7 8 7 8 10 12 13 11 4 340 291 262 252 248 246 245 245 246 245 244 242 241 239 236 234 234 235 231 223 229 237 235 235 237 238 240 239 239 245 252 252 244 237 235 233 231 230 232 232 230 228 229 231
348 349 349 349 351 354 355 357 359 359 359 354 345 339 338 340 343 344 345 346 346 347 348 350 353 354 354 353 352 353 355 358 1 4 5 4 5 8 10 10 9 2 340 290 261 251 246 244 243 244 244 245 243 242 241 239 237 234 231 226 219 222 230 233 235 237 236 237 237 236 236 239 244 244 238 234 233 231 229 229 231 232 229 227 228
346 345 344 345 346 350 353 355 360 1 360 359 355 351 349 347 346 348 349 349 348 348 347 347 349 351 352 351 350 350 351 353 355 358 1 1 1 3 6 7 8 7 0 336 286 259 250 246 244 243 243 244 244 243 241 241 239 237 233 227 222 222 226 228 232 236 237 237 237 236 234 232 234 239 239 234 232 230 229 229 229 231 231 229 227
344 342 340 339 339 343 347 349 352 356 357 358 358 358 358 358 356 356 357 355 352 350 348 347 347 348 349 349 348 348 349 350 351 353 355 356 357 358 1 4 5 6 5 358 329 280 257 249 245 244 243 243 244 244 242 241 240 238 236 232 228 227 228 229 229 232 235 237 236 234 233 234 234 237 239 237 235 232 230 230 229 229 230 230 229
342 341 337 334 333 334 338 340 341 347 352 354 355 356 358 359 357 356 355 353 351 349 347 346 345 345 346 346 346 346 347 348 349 350 352 353 352 352 355 359 0 2 5 4 355 322 276 257 250 246 244 243 243 243 243 242 241 239 237 235 234 232 231 231 230 229 229 232 236 234 233 235 235 235 238 238 238 235 232 232 231 229 229 229 229
339 338 333 328 328 328 330 333 332 335 343 348 348 348 350 351 351 350 349 348 347 346 345 343 342 341 341 341 342 342 343 345 346 348 349 350 349 347 348 352 355 356 359 3 3 351 318 278 260 251 247 245 244 244 244 243 243 242 239 237 236 235 234 234 233 231 228 227 231 235 235 234 234 234 235 239 240 239 235 232 231 231 229 228 228
335 335 330 322 322 325 327 329 327 325 330 337 339 339 339 341 344 345 344 344 343 343 342 340 339 338 337 337 337 339 339 340 342 344 346 347 348 345 343 345 349 351 352 356 1 0 348 319 285 265 254 249 247 245 245 244 244 243 242 240 238 236 236 235 235 234 232 228 228 232 235 235 233 232 233 237 240 240 236 232 231 231 231 228 227
332 331 327 320 319 325 328 328 325 321 319 323 328 332 334 335 337 339 340 340 340 339 339 338 336 334 333 332 333 334 335 336 337 340 342 344 345 344 342 341 343 345 346 348 352 357 356 344 322 295 271 257 252 249 246 245 244 243 243 243 241 238 237 236 235 234 234 233 230 230 231 232 231 230 231 233 236 237 235 231 230 230 231 229 227
330 329 327 323 319 322 326 327 324 319 315 316 321 327 331 332 332 334 336 336 336 336 336 336 334 332 330 329 329 330 331 332 334 335 338 340 342 342 341 339 338 340 341 342 344 348 352 350 339 320 300 278 262 255 251 248 245 244 242 242 242 241 239 237 236 235 235 235 233 231 230 231 230 228 228 229 232 233 233 231 229 228 230 230 228
326 325 325 324 319 318 320 323 323 319 316 316 320 324 327 329 329 330 332 332 332 332 332 333 332 329 327 326 326 327 328 329 330 331 333 335 338 339 339 338 336 335 336 337 339 342 345 346 342 328 312 301 285 268 258 252 248 245 243 241 241 241 241 239 237 236 236 235 234 232 230 230 230 228 226 227 229 230 231 231 229 226 227 229 228
322 319 319 318 316 314 316 318 319 319 318 318 319 322 324 324 325 326 327 328 329 329 329 329 329 327 325 323 323 323 324 326 327 328 329 331 333 335 336 335 333 332 332 332 334 338 339 340 339 331 315 304 299 289 274 261 253 248 245 242 240 240 240 240 239 237 237 236 234 233 231 230 230 229 228 227 226 228 230 230 230 227 226 227 228
319 313 311 312 312 311 311 313 315 317 318 317 315 318 319 319 320 322 323 324 325 325 325 326 326 324 322 320 320 320 321 322 324 325 326 327 329 332 333 332 329 328 328 328 329 332 333 334 334 331 319 302 296 294 288 276 262 252 247 244 241 239 239 240 240 239 238 236 235 233 232 230 229 229 229 228 226 225 228 229 230 229 226 225 227
317 310 306 308 308 307 307 307 308 312 316 314 311 312 314 315 316 318 319 320 321 320 321 323 323 322 320 318 317 316 317 318 321 322 323 324 326 329 330 329 326 325 324 324 325 326 327 328 329 330 324 309 297 292 289 285 275 261 251 246 242 239 238 238 239 239 238 237 235 233 231 230 230 228 228 228 227 225 225 227 229 230 228 225 226
316 309 306 306 304 303 304 303 303 307 311 309 306 307 309 310 312 314 315 316 318 317 318 320 321 320 318 316 314 313 313 316 318 320 321 323 325 326 327 325 322 322 321 321 321 322 324 324 324 325 325 316 304 295 288 285 282 272 258 249 244 241 238 237 237 238 238 237 236 234 232 230 229 228 227 227 227 225 223 224 226 229 230 228 227
314 310 308 306 302 299 300 302 303 303 303 302 302 304 305 307 309 311 312 313 315 315 316 318 320 318 316 314 311 310 311 313 316 318 320 322 324 323 322 320 319 319 320 319 320 321 322 322 320 320 322 318 310 303 295 286 281 276 266 255 247 242 239 237 235 235 236 237 236 234 233 231 229 228 227 226 226 225 223 222 223 225 228 229 229
313 309 308 306 302 300 300 302 302 300 297 297 299 302 303 305 307 308 309 312 313 313 315 317 318 317 314 311 309 309 310 312 314 316 319 321 321 319 317 317 317 318 319 318 318 320 320 319 318 317 317 316 311 306 301 293 284 277 269 261 252 245 240 237 235 234 234 235 235 234 233 232 230 228 227 226 225 224 224 223 223 222 224 227 229
312 308 308 306 302 300 300 300 300 297 295 295 299 302 304 305 305 306 308 310 311 312 314 316 316 314 311 309 308 308 309 312 314 316 318 318 316 314 314 315 317 318 318 318 317 318 319 318 317 317 315 314 311 306 302 297 289 280 271 263 256 249 242 238 235 233 232 233 234 234 233 232 231 229 227 225 224 223 223 224 223 222 222 223 226
313 308 307 306 304 300 298 298 298 296 295 297 300 303 304 304 303 304 307 309 309 312 313 313 313 312 310 309 308 308 310 312 314 315 315 314 313 314 315 317 318 318 318 317 317 317 317 317 317 316 315 314 312 307 303 299 292 283 272 264 258 252 245 240 236 233 232 231 231 232 232 231 230 230 227 225 223 222 221 222 222 222 221 222 224
313 307 305 305 305 301 297 295 296 296 297 300 301 302 303 302 302 304 306 308 310 311 311 311 312 311 310 309 309 309 310 311 311 311 311 312 312 314 316 318 318 317 316 316 316 316 316 317 317 316 316 315 313 309 305 301 294 284 273 264 259 254 248 242 238 234 231 230 229 230 231 230 229 229 228 225 223 221 220 221 221 221 222 223 223
310 307 304 303 304 302 297 294 294 295 297 298 298 299 300 300 302 304 306 308 309 310 310 312 312 312 310 309 308 307 307 307 307 307 308 309 311 313 316 317 317 316 315 315 315 316 316 317 316 316 316 316 313 309 306 302 296 287 275 263 258 255 250 243 240 236 232 229 229 228 228 229 229 228 228 227 224 221 220 220 221 221 221 222 223
309 308 306 304 304 303 298 295 294 292 293 294 295 297 299 301 303 305 306 308 309 310 310 311 311 309 307 306 305 304 303 304 305 306 307 308 311 313 315 316 316 314 314 314 315 316 317 316 316 316 316 315 313 310 305 302 296 287 275 263 256 255 252 244 239 237 233 229 228 227 226 227 228 227 227 227 225 222 220 220 221 222 222 221 222
309 310 308 305 304 303 301 299 296 293 293 296 297 297 299 301 302 303 305 306 307 308 308 307 306 305 304 303 303 302 302 303 305 306 308 310 312 314 315 315 315 314 314 315 316 316 316 316 315 315 315 313 313 310 305 301 295 285 273 263 256 253 253 247 239 237 236 230 227 226 225 225 226 226 226 226 225 224 221 221 221 222 222 222 221
310 311 309 306 304 303 301 298 296 296 299 301 299 298 298 299 300 301 302 303 304 305 306 306 306 305 304 303 302 302 302 305 307 308 310 311 313 314 314 314 314 314 315 315 315 315 315 316 315 314 313 312 311 310 305 300 292 281 269 262 259 255 252 249 241 236 236 233 228 226 225 224 224 225 225 225 225 224 222 221 220 221 222 222 222
307 309 308 305 301 298 296 295 296 299 302 301 299 299 299 300 300 300 301 302 304 307 307 307 306 305 303 302 301 302 304 306 308 309 311 311 313 313 314 314 314 314 314 314 314 314 315 315 314 313 312 311 310 308 304 299 290 279 267 260 259 257 253 249 243 236 234 234 230 226 225 224 223 223 224 224 224 224 223 221 220 220 221 222 222
306 308 307 302 296 294 292 293 295 298 299 299 299 300 301 302 302 302 303 304 306 307 306 305 304 302 301 301 302 303 305 308 309 310 311 312 313 314 314 314 313 313 313 314 314 313 313 313 313 312 311 310 310 307 303 297 289 280 271 262 258 257 254 248 242 236 232 232 231 228 225 224 223 222 223 224 224 224 223 222 220 220 220 221 221
305 306 304 297 291 289 290 291 291 291 293 295 297 299 300 301 301 302 303 303 304 304 304 303 303 303 303 303 304 305 307 308 310 311 312 313 313 313 313 313 313 313 313 313 312 312 312 312 312 312 311 311 309 306 302 297 290 282 274 267 260 256 252 248 242 236 232 231 231 229 226 224 222 222 222 222 223 223 223 222 221 220 219 220 220
303 303 298 290 286 288 291 291 289 288 290 292 294 296 297 298 299 300 300 301 301 301 302 303 304 304 305 306 306 307 308 309 310 311 312 313 313 312 312 312 312 311 311 311 311 311 311 311 312 311 312 311 308 305 302 297 293 285 274 266 262 257 251 246 241 235 231 230 230 229 227 224 222 221 221 221 222 223 223 222 221 220 219 219 219
301 298 290 284 285 290 292 291 289 287 289 291 292 293 295 296 298 298 299 299 298 299 300 302 303 304 305 306 307 307 308 309 310 310 311 312 312 311 310 310 310 310 310 310 310 310 310 311 311 311 312 311 308 306 303 299 294 288 277 266 261 257 251 244 239 234 229 228 228 228 227 225 223 221 220 220 221 221 222 222 221 220 219 218 218
300 295 289 286 286 289 289 288 287 287 289 291 292 293 295 297 298 298 298 298 298 298 300 301 303 304 305 306 307 307 308 308 309 310 311 310 309 308 308 308 308 308 308 309 310 310 310 311 311 312 313 312 310 307 304 301 296 288 279 268 260 255 249 243 238 234 229 226 226 227 228 226 224 221 220 219 220 220 220 221 221 220 219 218 218
297 291 287 286 286 285 285 285 285 287 290 291 292 294 296 297 298 299 299 299 300 300 301 302 304 305 305 306 306 307 307 308 309 309 309 307 306 306 306 306 306 307 308 309 310 310 310 311 312 313 314 313 311 308 305 302 297 289 279 270 261 254 248 243 238 235 230 225 224 225 228 228 225 222 221 220 220 220 220 220 221 220 220 219 218
293 286 282 284 284 283 284 284 284 287 289 291 292 294 296 297 298 299 299 300 301 301 302 303 304 304 305 306 306 307 307 308 308 307 306 305 305 305 305 306 307 308 309 310 310 310 311 312 313 314 314 313 311 309 305 302 298 290 279 270 261 253 247 243 239 236 231 225 223 224 227 230 227 223 222 222 220 220 220 219 220 221 220 220 218
285 282 279 281 281 280 282 283 285 287 289 290 292 294 295 296 297 298 298 299 300 301 301 302 303 304 306 307 308 308 307 307 306 305 305 305 305 305 306 308 309 309 310 310 310 310 311 313 314 315 314 313 312 310 306 302 298 291 281 271 261 252 246 242 240 238 232 225 222 223 225 230 230 224 222 223 221 220 219 219 220 220 220 220 219
276 275 275 278 279 281 283 284 285 287 289 291 292 293 294 295 296 296 297 298 299 300 301 302 303 305 307 308 308 308 307 306 306 306 306 306 306 307 308 309 310 310 310 310 310 311 312 313 314 315 315 314 313 311 307 303 298 292 283 273 262 251 245 242 239 238 235 226 221 222 224 229 232 227 222 223 221 218 218 219 219 219 219 219 219
275 276 277 278 279 280 282 283 285 287 289 290 290 291 292 293 294 295 297 298 299 300 301 302 302 304 306 307 308 308 307 306 306 306 307 307 308 308 309 309 310 310 310 310 311 311 312 313 315 316 315 314 313 312 308 304 298 292 284 274 263 252 244 242 239 239 237 229 221 219 220 226 231 227 222 222 221 218 217 218 219 218 218 218 217
277 277 277 277 278 280 281 283 285 286 287 287 288 289 291 292 294 295 297 298 299 300 301 301 301 302 304 305 307 307 307 307 307 307 307 308 308 308 309 309 309 309 310 310 311 312 313 314 315 316 315 314 313 312 309 303 297 291 284 273 263 254 245 241 239 239 238 232 220 211 213 222 227 225 221 220 220 218 217 217 218 218 217 217 216
278 276 276 277 278 280 281 282 284 285 286 287 289 290 292 293 294 296 298 299 300 300 300 300 300 301 301 302 305 306 306 306 306 306 307 307 307 308 308 308 308 309 310 311 311 312 313 314 316 316 315 313 313 311 307 302 295 289 282 272 262 254 247 242 240 239 238 232 216 207 213 221 224 223 220 219 219 218 217 217 218 217 216 215 215
280 278 278 277 278 279 280 282 284 286 288 290 291 292 292 293 295 296 298 299 299 299 299 299 299 299 300 302 304 305 305 305 306 306 307 307 307 307 307 308 308 310 311 311 311 312 313 314 315 315 313 313 313 310 305 299 292 286 279 271 262 253 247 244 240 239 238 230 216 212 218 222 223 222 220 219 218 218 218 217 217 217 215 215 214
282 280 280 279 280 281 283 284 286 287 290 293 294 294 294 295 295 296 298 299 298 298 299 300 302 302 303 303 303 304 304 304 305 306 306 306 306 306 307 309 309 310 310 311 311 312 312 313 314 313 311 312 311 306 301 295 289 282 275 268 263 255 248 244 240 238 237 229 218 217 223 224 223 221 219 218 219 218 218 217 217 216 215 214 214
Height
10959 10958 10956 10954 10953 10951 10950 10949 10948 10947 10945 10944 10941 10939 10937 10935 10933 10932 10930 10928 10927 10925 10924 10924 10923 10923 10923 10923 10923 10923 10924 10924 10925 10925 10926 10926 10926 10925 10925 10925 10926 10928 10929 10929 10930 10931 10932 10933 10934 10936 10936 10936 10936 10935 10935 10934 10934 10934 10934 10934 10934 10935 10936 10937 10937 10938 10939 10939 10939 10939 10939 10939 10939 10939 10938 10938 10938 10939 10939 10940 10940 10941 10941 10941 10941
10960 10959 10957 10955 10954 10953 10952 10951 10950 10949 10947 10945 10942 10940 10938 10937 10935 10932 10930 10928 10925 10924 10922 10921 10920 10919 10919 10919 10919 10919 10920 10921 10922 10922 10923 10923 10923 10923 10923 10923 10924 10926 10927 10927 10928 10929 10930 10932 10934 10936 10938 10937 10935 10934 10934 10933 10933 10934 10934 10933 10933 10934 10935 10936 10936 10937 10938 10939 10939 10939 10938 10939 10939 10939 10939 10939 10939 10939 10939 10940 10940 10941 10941 10941 10941
10961 10959 10958 10956 10955 10954 10953 10952 10950 10950 10948 10946 10943 10941 10939 10937 10935 10933 10930 10928 10925 10923 10921 10919 10918 10917 10916 10916 10916 10916 10916 10917 10918 10919 10919 10920 10920 10920 10920 10921 10922 10923 10924 10925 10926 10927 10928 10931 10934 10936 10937 10935 10933 10932 10932 10932 10933 10933 10934 10934 10933 10933 10934 10935 10936 10936 10937 10938 10938 10938 10938 10938 10938 10939 10939 10939 10939 10939 10939 10940 10940 10941 10941 10941 10941
10961 10960 10959 10957 10956 10955 10954 10952 10951 10950 10948 10946 10944 10942 10940 10937 10935 10933 10931 10929 10926 10924 10921 10919 10917 10915 10914 10913 10913 10913 10913 10914 10914 10915 10916 10917 10917 10917 10917 10918 10919 10920 10921 10922 10924 10925 10926 10929 10933 10934 10932 10929 10927 10929 10930 10930 10931 10931 10932 10933 10933 10933 10933 10934 10935 10935 10936 10936 10937 10938 10938 10938 10938 10938 10939 10939 10939 10939 10939 10940 10940 10941 10941 10941 10941
10962 10960 10959 10958 10956 10955 10954 10953 10951 10950 10948 10946 10944 10942 10940 10938 10936 10934 10931 10929 10927 10925 10922 10920 10917 10915 10913 10911 10911 10911 10911 10911 10911 10912 10913 10913 10914 10914 10915 10915 10916 10918 10918 10919 10921 10922 10923 10926 10929 10928 10923 10922 10924 10927 10928 10928 10928 10929 10930 10931 10931 10932 10932 10933 10933 10934 10935 10936 10936 10936 10937 10937 10937 10937 10938 10938 10938 10939 10939 10940 10940 10940 10941 10941 10941
10962 10961 10959 10958 10957 10956 10955 10953 10951 10950 10948 10946 10945 10943 10941 10938 10936 10934 10932 10929 10927 10925 10923 10921 10919 10917 10914 10912 10910 10909 10909 10909 10909 10909 10910 10910 10911 10911 10912 10913 10914 10915 10915 10916 10918 10919 10920 10922 10923 10920 10918 10920 10922 10924 10924 10925 10926 10927 10929 10929 10930 10931 10931 10932 10932 10933 10934 10935 10935 10935 10936 10936 10936 10936 10937 10937 10938 10938 10939 10939 10940 10940 10941 10941 10941
10962 10960 10959 10958 10957 10956 10954 10952 10951 10950 10949 10947 10945 10943 10940 10938 10936 10934 10932 10930 10928 10925 10923 10921 10920 10918 10915 10913 10911 10909 10907 10907 10907 10907 10907 10908 10908 10909 10909 10910 10911 10912 10913 10914 10915 10916 10917 10918 10919 10917 10916 10918 10919 10919 10920 10922 10924 10926 10928 10929 10930 10930 10930 10931 10931 10932 10933 10933 10934 10934 10934 10934 10935 10935 10935 10936 10937 10937 10938 10938 10939 10940 10940 10941 10941
10961 10960 10959 10957 10956 10955 10953 10951 10950 10950 10949 10947 10945 10942 10940 10937 10935 10933 10932 10930 10928 10926 10924 10922 10920 10918 10916 10914 10912 10910 10908 10907 10906 10905 10905 10905 10905 10905 10906 10907 10908 10909 10910 10911 10912 10914 10914 10915 10915 10915 10914 10914 10915 10916 10918 10921 10923 10925 10926 10927 10928 10929 10929 10929 10930 10930 10931 10931 10932 10933 10933 10933 10933 10934 10934 10935 10935 10936 10937 10937 10938 10939 10940 10940 10941
10960 10959 10958 10957 10956 10954 10952 10950 10949 10948 10947 10946 10944 10942 10939 10936 10934 10932 10931 10929 10928 10926 10924 10922 10920 10918 10916 10914 10913 10911 10909 10907 10905 10904 10903 10903 10902 10902 10902 10903 10904 10905 10907 10908 10908 10910 10911 10912 10912 10912 10911 10911 10913 10915 10917 10919 10921 10922 10924 10925 10926 10927 10928 10928 10929 10929 10929 10929 10930 10931 10931 10931 10932 10932 10933 10933 10934 10935 10935 10936 10937 10938 10938 10939 10940
10960 10959 10957 10956 10955 10953 10951 10949 10947 10946 10945 10944 10942 10941 10938 10936 10934 10931 10930 10928 10927 10925 10924 10922 10920 10918 10916 10914 10912 10911 10909 10908 10906 10904 10902 10901 10900 10899 10899 10898 10899 10900 10902 10903 10904 10906 10907 10908 10909 10909 10908 10908 10910 10913 10915 10916 10918 10919 10921 10922 10924 10926 10928 10929 10929 10928 10927 10927 10927 10928 10929 10929 10930 10930 10931 10932 10932 10933 10934 10935 10936 10936 10937 10938 10939
10960 10958 10957 10955 10953 10951 10949 10947 10946 10945 10943 10942 10940 10939 10937 10935 10933 10931 10929 10928 10926 10924 10922 10921 10919 10917 10915 10913 10912 10910 10908 10906 10905 10903 10901 10900 10898 10897 10896 10895 10894 10895 10896 10898 10899 10901 10902 10904 10904 10905 10905 10905 10907 10910 10911 10913 10915 10917 10918 10920 10922 10925 10929 10930 10929 10926 10924 10923 10923 10924 10924 10925 10926 10927 10929 10930 10931 10931 10932 10933 10934 10935 10936 10936 10937
10959 10957 10956 10954 10952 10950 10948 10946 10944 10943 10942 10940 10939 10937 10935 10934 10933 10931 10929 10927 10925 10923 10921 10919 10918 10916 10914 10913 10911 10909 10907 10906 10904 10902 10900 10898 10897 10895 10893 10891 10890 10890 10891 10892 10894 10895 10897 10898 10899 10900 10900 10902 10904 10906 10908 10910 10912 10914 10916 10918 10921 10924 10926 10927 10924 10920 10919 10918 10918 10918 10919 10921 10922 10924 10925 10927 10928 10929 10930 10931 10932 10933 10934 10935 10936
10958 10956 10954 10953 10951 10949 10947 10945 10943 10942 10940 10939 10937 10935 10934 10933 10932 10931 10929 10927 10924 10922 10920 10918 10916 10914 10913 10911 10910 10908 10906 10904 10903 10901 10899 10897 10895 10893 10891 10888 10886 10885 10885 10886 10888 10889 10891 10892 10893 10894 10895 10897 10899 10902 10904 10906 10908 10911 10913 10915 10919 10921 10920 10919 10917 10914 10914 10914 10915 10916 10917 10919 10920 10921 10923 10924 10926 10927 10928 10929 10930 10931 10932 10933 10934
10956 10955 10953 10951 10949 10947 10945 10944 10942 10940 10939 10937 10936 10935 10933 10932 10931 10929 10927 10925 10923 10921 10919 10917 10915 10913 10911 10910 10908 10906 10904 10902 10901 10899 10897 10895 10893 10891 10889 10886 10883 10881 10880 10881 10882 10883 10885 10886 10887 10888 10889 10891 10894 10897 10899 10902 10904 10907 10909 10911 10914 10915 10913 10911 10910 10909 10908 10909 10911 10913 10916 10917 10918 10919 10920 10921 10922 10924 10925 10926 10928 10928 10930 10931 10932
10955 10953 10951 10949 10948 10946 10944 10942 10941 10939 10937 10936 10935 10933 10932 10930 10928 10927 10925 10923 10921 10920 10918 10916 10914 10912 10910 10908 10906 10904 10901 10899 10898 10896 10894 10892 10891 10889 10886 10884 10881 10878 10875 10875 10876 10878 10880 10881 10882 10883 10883 10885 10887 10890 10893 10896 10899 10901 10904 10906 10907 10907 10905 10904 10904 10903 10903 10905 10907 10910 10913 10913 10912 10913 10914 10915 10917 10919 10921 10923 10925 10926 10927 10928 10930
10953 10951 10949 10947 10946 10944 10943 10941 10939 10937 10936 10934 10933 10931 10929 10927 10925 10923 10922 10920 10919 10918 10916 10914 10912 10911 10909 10907 10904 10902 10899 10896 10894 10892 10891 10889 10887 10886 10884 10882 10879 10876 10873 10870 10870 10872 10874 10876 10877 10878 10879 10880 10882 10884 10887 10890 10893 10895 10898 10900 10901 10901 10900 10900 10900 10900 10900 10902 10904 10907 10907 10906 10906 10908 10909 10911 10912 10915 10917 10920 10922 10923 10925 10926 10927
10950 10948 10946 10945 10943 10942 10940 10939 10937 10936 10934 10932 10930 10928 10926 10924 10922 10920 10919 10918 10916 10915 10913 10911 10910 10908 10906 10905 10903 10900 10898 10895 10892 10889 10886 10885 10883 10882 10881 10879 10877 10874 10871 10868 10866 10866 10868 10870 10872 10874 10875 10876 10877 10879 10881 10884 10887 10889 10892 10893 10895 10896 10896 10896 10896 10896 10897 10898 10900 10902 10902 10902 10903 10905 10907 10909 10910 10912 10914 10917 10919 10920 10922 10924 10925
10948 10946 10944 10942 10941 10939 10938 10936 10935 10933 10931 10930 10928 10925 10923 10921 10919 10918 10916 10915 10913 10911 10909 10908 10906 10904 10903 10901 10900 10898 10896 10893 10890 10887 10883 10881 10879 10877 10876 10875 10874 10872 10869 10866 10864 10862 10862 10864 10866 10869 10870 10872 10873 10875 10877 10879 10881 10883 10886 10887 10889 10890 10891 10891 10891 10891 10893 10895 10895 10896 10898 10899 10900 10902 10904 10906 10907 10909 10911 10914 10916 10918 10919 10921 10922
10945 10943 10941 10939 10938 10936 10935 10934 10932 10930 10928 10926 10924 10922 10921 10919 10917 10915 10913 10911 10909 10907 10905 10904 10902 10901 10899 10897 10896 10894 10892 10891 10888 10885 10882 10878 10876 10874 10872 10871 10870 10869 10867 10865 10862 10860 10859 10859 10861 10863 10865 10867 10869 10870 10872 10873 10875 10878 10879 10881 10882 10884 10885 10885 10885 10886 10888 10890 10891 10891 10893 10894 10896 10898 10900 10902 10904 10906 10907 10910 10913 10915 10916 10918 10919
10942 10940 10939 10937 10935 10934 10932 10931 10930 10928 10926 10924 10922 10921 10919 10917 10915 10913 10910 10908 10906 10904 10902 10901 10899 10897 10896 10894 10892 10890 10888 10887 10885 10883 10880 10876 10873 10870 10868 10866 10866 10865 10863 10862 10861 10859 10858 10857 10856 10857 10859 10861 10863 10864 10866 10867 10869 10871 10873 10874 10876 10877 10879 10879 10880 10881 10883 10884 10886 10887 10888 10890 10892 10894 10896 10898 10900 10902 10904 10906 10908 10911 10913 10914 10916
10939 10938 10936 10934 10933 10931 10930 10929 10927 10926 10924 10922 10920 10919 10917 10915 10912 10910 10908 10905 10903 10901 10899 10897 10895 10893 10892 10890 10887 10885 10883 10881 10880 10878 10876 10873 10870 10868 10865 10862 10860 10860 10859 10858 10857 10857 10856 10855 10854 10853 10853 10854 10856 10857 10859 10860 10862 10864 10865 10867 10868 10870 10871 10873 10874 10875 10876 10878 10880 10881 10883 10885 10887 10889 10892 10894 10896 10898 10900 10902 10904 10906 10908 10910 10912
10936 10935 10933 10932 10931 10929 10928 10926 10925 10923 10922 10919 10917 10915 10914 10912 10909 10907 10904 10902 10900 10897 10895 10893 10890 10888 10886 10884 10882 10880 10877 10875 10873 10871 10870 10868 10866 10864 10862 10860 10857 10855 10854 10853 10852 10852 10852 10852 10852 10851 10849 10849 10849 10849 10850 10852 10853 10855 10856 10858 10860 10861 10863 10865 10867 10868 10870 10872 10874 10875 10877 10879 10882 10884 10887 10889 10891 10893 10895 10897 10898 10901 10904 10906 10908
10934 10932 10930 10929 10927 10926 10924 10923 10921 10920 10918 10915 10913 10911 10909 10907 10905 10903 10901 10898 10896 10894 10891 10888 10886 10883 10881 10879 10876 10874 10871 10869 10867 10865 10863 10861 10860 10859 10858 10856 10854 10851 10849 10847 10846 10845 10846 10846 10847 10847 10846 10844 10843 10842 10842 10842 10843 10845 10847 10848 10850 10852 10854 10856 10858 10860 10862 10865 10867 10869 10870 10873 10875 10878 10881 10883 10886 10888 10890 10891 10893 10896 10899 10901 10904
10930 10929 10927 10925 10923 10922 10920 10919 10917 10915 10913 10911 10909 10906 10904 10902 10901 10899 10897 10894 10892 10890 10888 10885 10882 10879 10876 10874 10871 10869 10866 10864 10862 10860 10858 10856 10854 10853 10852 10850 10849 10848 10845 10843 10841 10840 10840 10840 10841 10841 10840 10839 10837 10836 10834 10833 10833 10834 10836 10838 10840 10842 10844 10847 10849 10851 10854 10856 10859 10861 10863 10866 10868 10871 10875 10877 10880 10882 10885 10887 10888 10891 10893 10896 10899
10926 10924 10922 10920 10918 10917 10915 10914 10913 10910 10908 10906 10904 10902 10900 10898 10896 10894 10892 10890 10888 10886 10884 10881 10878 10875 10872 10869 10867 10864 10861 10859 10857 10855 10852 10850 10848 10847 10845 10843 10841 10841 10840 10839 10838 10837 10836 10836 10835 10835 10834 10832 10831 10830 10828 10826 10825 10824 10825 10827 10829 10831 10833 10836 10839 10842 10845 10847 10850 10853 10856 10858 10861 10864 10867 10871 10874 10876 10879 10881 10884 10886 10888 10890 10893
10922 10920 10918 10915 10913 10912 10910 10909 10907 10905 10903 10901 10899 10897 10895 10893 10891 10890 10888 10886 10884 10882 10879 10877 10874 10871 10868 10865 10862 10859 10857 10855 10852 10850 10848 10845 10843 10841 10839 10836 10834 10833 10832 10832 10832 10832 10831 10831 10830 10829 10827 10825 10824 10823 10821 10819 10817 10815 10815 10816 10817 10819 10822 10825 10828 10831 10834 10838 10841 10845 10848 10850 10853 10856 10860 10863 10867 10870 10873 10875 10878 10880 10883 10885 10887
10919 10916 10914 10911 10909 10907 10905 10904 10902 10901 10899 10897 10894 10892 10890 10888 10886 10885 10883 10881 10879 10877 10874 10871 10869 10866 10863 10860 10857 10855 10852 10850 10848 10845 10843 10841 10838 10836 10833 10830 10828 10826 10824 10823 10823 10824 10823 10822 10822 10821 10820 10818 10815 10814 10813 10812 10810 10807 10805 10805 10806 10808 10810 10813 10816 10820 10823 10827 10831 10835 10839 10842 10846 10849 10852 10856 10859 10863 10866 10869 10872 10875 10877 10880 10882
10915 10913 10910 10908 10905 10903 10901 10899 10898 10896 10894 10892 10889 10887 10885 10883 10881 10879 10877 10875 10873 10871 10868 10865 10863 10861 10858 10856 10853 10850 10847 10845 10843 10840 10838 10836 10833 10831 10828 10826 10823 10820 10816 10814 10813 10814 10813 10812 10811 10810 10810 10809 10806 10804 10803 10802 10801 10799 10796 10795 10796 10797 10799 10801 10804 10808 10812 10816 10820 10825 10829 10834 10837 10841 10844 10848 10852 10855 10859 10862 10865 10868 10871 10874 10877
10912 10909 10907 10905 10902 10899 10896 10894 10893 10892 10889 10887 10884 10882 10880 10878 10875 10873 10871 10869 10866 10864 10861 10859 10857 10855 10853 10850 10848 10845 10842 10839 10837 10835 10832 10830 10828 10825 10823 10821 10819 10816 10812 10807 10803 10804 10804 10802 10800 10799 10798 10797 10796 10794 10792 10791 10791 10789 10786 10785 10785 10786 10787 10789 10792 10796 10800 10804 10809 10814 10819 10824 10828 10832 10836 10840 10843 10847 10851 10854 10858 10861 10865 10868 10871
10908 10905 10903 10901 10898 10895 10892 10890 10888 10886 10884 10881 10879 10877 10875 10872 10870 10867 10865 10862 10860 10857 10855 10853 10851 10848 10847 10844 10842 10839 10836 10834 10831 10829 10826 10824 10822 10820 10818 10816 10814 10812 10809 10803 10796 10793 10795 10792 10788 10787 10786 10784 10783 10782 10781 10780 10779 10778 10775 10773 10773 10774 10776 10777 10780 10783 10788 10792 10797 10803 10808 10813 10818 10822 10827 10831 10835 10839 10843 10846 10850 10854 10858 10861 10865
10903 10901 10898 10896 10893 10890 10887 10885 10883 10881 10879 10876 10874 10871 10869 10866 10864 10861 10859 10857 10855 10852 10849 10846 10844 10842 10840 10838 10836 10833 10830 10827 10825 10823 10820 10818 10816 10815 10813 10810 10808 10805 10804 10800 10792 10785 10784 10783 10778 10774 10774 10772 10769 10769 10769 10767 10766 10766 10764 10762 10761 10762 10764 10765 10768 10772 10776 10780 10785 10791 10796 10802 10807 10812 10817 10821 10826 10830 10834 10838 10842 10846 10850 10854 10858
10898 10896 10894 10891 10888 10885 10882 10879 10877 10875 10873 10870 10868 10865 10863 10861 10858 10855 10854 10852 10849 10847 10844 10841 10839 10836 10834 10832 10830 10827 10824 10821 10819 10818 10815 10813 10810 10808 10805 10803 10800 10798 10795 10793 10788 10779 10773 10771 10768 10763 10761 10760 10756 10755 10755 10754 10753 10753 10752 10750 10749 10750 10752 10753 10756 10759 10763 10768 10773 10779 10784 10790 10796 10801 10806 10812 10817 10822 10826 10830 10834 10838 10843 10847 10851
10894 10891 10889 10887 10884 10881 10878 10874 10871 10869 10867 10864 10862 10859 10857 10855 10852 10850 10847 10845 10842 10840 10838 10835 10832 10829 10827 10825 10824 10821 10818 10816 10814 10812 10809 10806 10803 10800 10797 10795 10792 10789 10787 10784 10781 10774 10765 10760 10757 10753 10749 10748 10745 10743 10743 10742 10740 10740 10739 10738 10737 10737 10739 10741 10743 10745 10750 10755 10760 10766 10772 10777 10784 10790 10796 10802 10807 10812 10817 10821 10826 10830 10835 10839 10843
10889 10887 10884 10881 10879 10876 10872 10869 10866 10864 10861 10859 10856 10854 10851 10849 10846 10843 10840 10837 10835 10833 10830 10828 10825 10823 10820 10819 10818 10816 10812 10810 10807 10805 10802 10798 10795 10791 10788 10786 10783 10779 10777 10774 10770 10766 10760 10751 10746 10742 10738 10735 10732 10730 10731 10731 10728 10726 10725 10725 10725 10725 10726 10728 10730 10731 10736 10742 10748 10753 10759 10765 10772 10779 10785 10791 10796 10801 10807 10812 10817 10822 10827 10831 10836
10882 10881 10878 10874 10871 10869 10866 10864 10861 10858 10855 10853 10851 10848 10845 10843 10840 10837 10834 10831 10828 10826 10824 10822 10820 10817 10815 10813 10811 10808 10805 10802 10799 10796 10793 10789 10785 10782 10778 10776 10773 10769 10765 10762 10759 10756 10752 10745 10737 10732 10727 10723 10720 10717 10717 10718 10717 10714 10711 10711 10713 10714 10713 10715 10718 10719 10723 10729 10735 10740 10746 10753 10760 10767 10773 10779 10785 10791 10797 10803 10808 10814 10818 10824 10829
10875 10874 10872 10868 10865 10862 10860 10858 10855 10852 10849 10848 10846 10843 10840 10837 10834 10831 10828 10825 10823 10820 10817 10815 10812 10810 10807 10805 10803 10800 10797 10793 10790 10787 10783 10780 10776 10772 10769 10765 10762 10758 10754 10751 10748 10745 10741 10736 10729 10722 10717 10713 10709 10705 10704 10705 10703 10701 10700 10699 10699 10700 10701 10702 10706 10708 10711 10716 10722 10727 10733 10740 10747 10754 10760 10767 10774 10780 10786 10793 10799 10805 10810 10815 10821
10871 10868 10866 10863 10860 10857 10854 10852 10849 10846 10843 10841 10839 10836 10833 10830 10828 10825 10822 10819 10817 10813 10810 10808 10805 10802 10800 10797 10795 10792 10788 10784 10780 10777 10774 10771 10767 10762 10758 10754 10751 10747 10744 10740 10737 10734 10730 10725 10719 10713 10707 10702 10698 10693 10691 10691 10690 10688 10688 10688 10687 10686 10687 10690 10694 10696 10699 10703 10709 10714 10721 10728 10735 10741 10748 10756 10763 10769 10776 10783 10789 10796 10802 10807 10813
10865 10862 10860 10857 10855 10852 10848 10845 10843 10841 10838 10835 10833 10830 10827 10824 10822 10819 10816 10813 10810 10807 10804 10801 10799 10796 10793 10790 10787 10783 10780 10775 10771 10768 10764 10761 10757 10752 10747 10744 10740 10737 10733 10729 10726 10722 10719 10714 10708 10703 10697 10691 10686 10682 10678 10678 10678 10676 10676 10676 10675 10673 10675 10679 10682 10684 10687 10691 10695 10701 10708 10715 10722 10730 10737 10745 10752 10759 10766 10773 10780 10786 10793 10799 10805
10859 10856 10853 10851 10849 10846 10843 10841 10838 10835 10833 10830 10828 10825 10822 10819 10816 10813 10810 10807 10804 10801 10798 10795 10792 10790 10786 10782 10778 10774 10771 10767 10762 10759 10755 10751 10747 10742 10737 10734 10730 10726 10723 10718 10714 10710 10707 10703 10697 10691 10686 10680 10674 10670 10667 10665 10665 10666 10665 10664 10662 10662 10665 10667 10670 10672 10675 10679 10683 10690 10697 10703 10711 10718 10726 10733 10741 10748 10755 10762 10769 10777 10784 10790 10797
10854 10850 10847 10844 10842 10840 10838 10835 10833 10830 10828 10825 10822 10819 10815 10813 10811 10807 10804 10800 10797 10793 10790 10787 10784 10781 10777 10773 10769 10766 10762 10758 10753 10750 10746 10743 10739 10733 10728 10724 10720 10715 10712 10708 10703 10699 10695 10691 10686 10679 10675 10669 10662 10659 10656 10654 10653 10654 10654 10653 10651 10651 10654 10656 10658 10660 10664 10668 10673 10679 10685 10691 10698 10705 10712 10720 10728 10735 10743 10751 10759 10767 10774 10781 10788
10849 10844 10840 10837 10835 10833 10830 10828 10825 10823 10821 10819 10816 10812 10809 10806 10803 10800 10796 10792 10789 10785 10782 10778 10775 10772 10769 10764 10760 10757 10753 10749 10745 10741 10738 10734 10730 10724 10719 10715 10710 10705 10701 10697 10693 10688 10683 10679 10674 10668 10663 10657 10651 10648 10645 10643 10643 10641 10641 10642 10641 10640 10642 10645 10646 10648 10654 10659 10663 10667 10672 10677 10684 10691 10699 10707 10715 10722 10731 10741 10750 10758 10764 10771 10779
10842 10838 10833 10830 10827 10824 10822 10819 10817 10815 10814 10812 10809 10805 10802 10799 10795 10791 10788 10784 10780 10776 10773 10769 10766 10763 10760 10756 10752 10748 10744 10740 10736 10733 10729 10726 10721 10716 10711 10707 10702 10696 10691 10687 10682 10677 10672 10668 10663 10657 10651 10646 10641 10637 10633 10633 10633 10631 10630 10631 10630 10630 10631 10633 10635 10638 10643 10648 10652 10656 10659 10663 10671 10680 10687 10696 10702 10710 10721 10731 10740 10748 10755 10762 10770
10834 10831 10827 10823 10820 10817 10814 10812 10809 10807 10805 10803 10801 10797 10794 10791 10787 10782 10779 10775 10771 10767 10763 10760 10757 10754 10751 10747 10743 10739 10734 10731 10727 10724 10721 10716 10711 10707 10703 10699 10694 10689 10683 10678 10671 10665 10661 10658 10652 10646 10641 10635 10631 10626 10622 10622 10622 10620 10619 10620 10619 10620 10621 10623 10625 10628 10632 10638 10643 10647 10648 10651 10660 10670 10678 10686 10694 10702 10713 10723 10730 10738 10746 10753 10761
10827 10824 10820 10817 10814 10810 10807 10805 10802 10800 10797 10794 10791 10787 10784 10781 10777 10774 10770 10766 10762 10757 10754 10751 10747 10744 10742 10738 10734 10729 10725 10722 10719 10716 10712 10706 10701 10697 10693 10689 10684 10678 10673 10668 10662 10656 10651 10647 10642 10636 10631 10626 10621 10616 10612 10611 10611 10610 10609 10609 10609 10610 10612 10614 10615 10616 10620 10628 10635 10639 10639 10640 10650 10664 10672 10679 10686 10696 10707 10716 10722 10729 10737 10744 10752
10821 10817 10814 10811 10807 10804 10800 10798 10795 10793 10790 10786 10782 10778 10775 10772 10769 10766 10762 10758 10754 10750 10746 10742 10739 10736 10733 10729 10725 10721 10716 10713 10710 10707 10703 10697 10691 10687 10683 10678 10672 10667 10661 10656 10651 10645 10640 10636 10633 10627 10622 10615 10611 10607 10602 10600 10601 10600 10599 10599 10600 10602 10604 10605 10605 10605 10609 10619 10627 10631 10633 10634 10644 10660 10668 10670 10678 10690 10700 10708 10713 10720 10727 10735 10742
10814 10812 10809 10806 10802 10798 10794 10791 10788 10785 10782 10778 10774 10770 10767 10765 10762 10758 10754 10751 10747 10743 10739 10735 10732 10728 10725 10721 10717 10712 10708 10704 10700 10697 10693 10688 10682 10677 10671 10666 10660 10654 10649 10644 10639 10634 10629 10626 10622 10618 10612 10606 10601 10598 10594 10591 10591 10590 10590 10590 10591 10595 10596 10594 10595 10595 10598 10610 10619 10624 10629 10633 10640 10652 10659 10661 10670 10681 10689 10694 10700 10707 10715 10723 10731
10813 10808 10804 10800 10795 10792 10789 10786 10781 10777 10773 10770 10766 10763 10760 10758 10755 10751 10746 10743 10739 10735 10731 10728 10725 10721 10718 10713 10709 10704 10699 10694 10691 10688 10684 10678 10672 10666 10660 10655 10649 10643 10638 10633 10628 10624 10619 10615 10611 10607 10602 10597 10592 10588 10586 10583 10581 10581 10582 10581 10582 10586 10587 10585 10586 10587 10590 10601 10612 10620 10630 10632 10631 10638 10647 10651 10659 10668 10674 10679 10685 10693 10702 10711 10720
10810 10805 10799 10794 10790 10787 10784 10780 10774 10769 10765 10762 10759 10756 10754 10751 10748 10743 10738 10735 10731 10727 10723 10720 10717 10714 10710 10705 10701 10696 10690 10686 10681 10677 10673 10667 10661 10655 10649 10643 10637 10632 10627 10621 10616 10613 10609 10605 10601 10597 10592 10588 10583 10579 10578 10576 10573 10572 10573 10573 10574 10578 10579 10577 10579 10580 10584 10595 10607 10618 10626 10621 10616 10624 10636 10641 10648 10655 10660 10665 10671 10680 10690 10699 10708
10803 10798 10793 10789 10785 10782 10778 10774 10768 10763 10759 10755 10751 10749 10747 10744 10740 10736 10731 10726 10722 10718 10714 10711 10708 10705 10701 10697 10692 10687 10681 10676 10672 10667 10663 10657 10651 10645 10638 10632 10626 10621 10616 10611 10606 10602 10598 10595 10592 10588 10584 10580 10575 10571 10569 10568 10566 10565 10565 10565 10567 10570 10570 10571 10573 10574 10579 10589 10601 10611 10613 10606 10604 10615 10625 10631 10638 10643 10647 10653 10660 10669 10679 10688 10698
10793 10789 10786 10782 10779 10776 10772 10767 10762 10757 10752 10747 10742 10739 10737 10736 10732 10728 10724 10718 10713 10709 10705 10702 10699 10696 10692 10687 10682 10678 10672 10667 10662 10657 10652 10646 10640 10634 10628 10622 10616 10610 10605 10600 10595 10591 10587 10585 10582 10580 10577 10573 10569 10564 10562 10560 10559 10559 10559 10558 10560 10563 10563 10565 10567 10568 10573 10582 10592 10600 10600 10595 10596 10606 10615 10622 10627 10630 10635 10644 10651 10660 10671 10680 10690
10784 10781 10777 10774 10771 10768 10764 10759 10754 10750 10744 10738 10732 10728 10727 10726 10723 10720 10716 10709 10703 10699 10695 10692 10688 10684 10680 10676 10672 10668 10663 10657 10652 10647 10641 10635 10630 10624 10619 10613 10606 10600 10595 10590 10585 10581 10577 10575 10573 10571 10569 10566 10563 10558 10555 10553 10552 10552 10553 10552 10552 10555 10557 10559 10561 10562 10566 10574 10583 10589 10588 10585 10587 10597 10607 10613 10616 10620 10628 10636 10644 10654 10664 10674 10683